Home > Weather > Iráklion > Past weeks

Flag for Greece Past Weather in Iráklion, Crete, Greece — Yesterday and Last 2 Weeks

Now
77 °F

Sunny.


Feels Like: 79 °F
Forecast: 69 / 85 °F
Wind: 8 mph from Northeast

Location: Heraklion Airport

Current Time: May 29, 2016 at 12:51:40 PM

Latest Report: May 29, 2016 at 12:20 PM


Visibility: 10 mi

Pressure: 29.98 "Hg

Humidity: 47%

Dew Point: 55 °F

Location of IráklionLocation

Past Weather in Iráklion — Graph

°F

Iráklion Temperature Yesterday

Maximum temperature yesterday: 77 °F (at 1:50 PM)
Minimum temperature yesterday: 61 °F (at 5:50 AM)
Average temperature yesterday: 70 °F

High & Low Weather Summary for the Past Weeks

 TemperatureHumidityPressure
High84 °F (May 21, 2:50 PM)94% (May 15, 3:50 PM)30.04 "Hg (May 15, 3:50 PM)
Low55 °F (May 16, 5:50 AM)32% (May 21, 9:20 AM)29.71 "Hg (May 21, 9:20 AM)
Average68 °F67%29.92 "Hg
* Reported May 14 11:20 AM — May 29 11:50 AM, Iráklion, Weather by CustomWeather, © 2016

Note: Actual official high and low records may vary slightly from our data, if they occured in-between our weather recording intervals... More about our weather records

Advertising

Iráklion Weather History for the Previous 24 Hours

Scroll right to see more
 ConditionsComfort  
Time TempWeatherWind HumidityBarometerVisibility
11:50 AM
Sun, May 29
77 °FSunny.6 mph47%29.98 "Hg10 mi
11:20 AM81 °FSunny.5 mph45%29.98 "Hg10 mi
10:50 AM81 °FSunny.5 mph45%29.98 "Hg10 mi
10:20 AM79 °FSunny.5 mph45%29.98 "Hg10 mi
9:50 AM79 °FSunny.3 mph45%29.98 "Hg10 mi
9:20 AM79 °FSunny.3 mph42%29.98 "Hg10 mi
8:50 AM77 °FSunny.5 mph44%29.98 "Hg10 mi
8:20 AM75 °FSunny.7 mph50%29.95 "Hg10 mi
7:50 AM70 °FSunny.8 mph53%29.95 "Hg10 mi
7:20 AM68 °FSunny.6 mph56%29.95 "Hg10 mi
6:50 AM64 °FClear.8 mph64%29.95 "Hg10 mi
6:20 AM63 °FClear.7 mph64%29.95 "Hg10 mi
5:50 AM63 °FClear.10 mph64%29.95 "Hg10 mi
5:20 AM64 °FClear.9 mph64%29.95 "Hg10 mi
4:50 AM64 °FClear.7 mph64%29.95 "Hg10 mi
4:20 AM64 °FClear.6 mph64%29.95 "Hg10 mi
3:50 AM64 °FClear.6 mph64%29.95 "Hg10 mi
3:20 AM64 °FClear.5 mph64%29.95 "Hg10 mi
2:50 AM64 °FClear.3 mph64%29.95 "Hg10 mi
2:20 AM64 °FClear.3 mph64%29.95 "Hg10 mi
1:50 AM64 °FClear.2 mph64%29.95 "Hg10 mi
1:20 AM64 °FClear.2 mph64%29.98 "Hg10 mi
12:50 AM64 °FClear.3 mph64%29.98 "Hg10 mi
12:20 AM68 °FClear.3 mph64%29.98 "Hg10 mi
11:50 PM
Sat, May 28
68 °FClear.5 mph64%29.98 "Hg10 mi
11:20 PM70 °FClear.3 mph60%29.98 "Hg10 mi
10:50 PM70 °FClear.6 mph60%29.98 "Hg10 mi
10:20 PM72 °FClear.5 mph57%29.98 "Hg10 mi
9:50 PM72 °FClear.6 mph57%29.98 "Hg10 mi
9:20 PM72 °FSunny.7 mph65%29.98 "Hg10 mi
8:50 PM72 °FSunny.6 mph65%29.98 "Hg10 mi
8:20 PM73 °FSunny.5 mph65%29.98 "Hg10 mi
7:50 PM73 °FSunny.2 mph65%29.98 "Hg10 mi
7:20 PM75 °FSunny.3 mph54%29.98 "Hg10 mi
6:20 PM75 °FSunny.6 mph54%29.98 "Hg10 mi
5:20 PM75 °FSunny.6 mph57%30.01 "Hg10 mi
4:50 PM75 °FSunny.7 mph57%30.01 "Hg10 mi
4:20 PM75 °FSunny.9 mph61%30.01 "Hg10 mi
3:50 PM75 °FPassing clouds.9 mph57%30.01 "HgN/A
2:50 PM75 °FPassing clouds.12 mph57%30.01 "HgN/A
2:20 PM77 °FSunny.12 mph54%30.01 "Hg10 mi
1:50 PM77 °FSunny.10 mph54%30.01 "Hg10 mi
1:20 PM75 °FPassing clouds.12 mph54%30.01 "HgN/A
12:50 PM75 °FPassing clouds.12 mph54%30.01 "HgN/A
12:20 PM75 °FPassing clouds.12 mph54%30.01 "HgN/A
Weather by CustomWeather, © 2016

See weather overviewHow to use our weather pages